(337696) = 2001 TW254

Discovered at Apache Point on 2001-10-14 by Sloan Digital Sky Survey.

Orbit

Orbit type: Main Belt

Note: WebGL enabled browser required.

epoch2024-03-31.0
epoch JD2460400.5
perihelion date2024-04-07.75710
perihelion JD2460408.25710
argument of perihelion (°)356.92733
ascending node (°)55.61468
inclination (°)10.65716
eccentricity0.0529907
perihelion distance (AU)2.9583460
Tisserand w.r.t. Jupiter3.2
ΔV w.r.t. Earth (km/sec)11.2
semimajor axis (AU)3.1238827
mean anomaly (°)358.61528
mean daily motion (°/day)0.17850970
aphelion distance (AU)3.289
period (years)5.52
P-vector [x]0.60741657
P-vector [y]0.73271893
P-vector [z]0.30686817
Q-vector [x]-0.77958533
Q-vector [y]0.47561331
Q-vector [z]0.40747847
absolute magnitude15.78
phase slope0.15
uncertainty0
referenceMPEC 2024-C163
observations used343
oppositions11
arc length (days)8144
first opposition used2001
last opposition used2024
residual rms (arc-secs)0.73
perturbers coarse indicatorM-v
perturbers precise indicator003Ek
first observation date used2001-09-18.0
last observation date used2024-01-05.0
computer nameMPCLINUX
JD of orbit computation2456700.396394
perihelion JD uncertainty (days)2.8750E-04
argument of perihelion uncertainty (°)5.7116E-05
ascending node uncertainty (°)1.6569E-05
inclination uncertainty (°)5.2169E-06
eccentricity uncertainty 4.9517E-08
perihelion distance uncertainty (AU)1.4904E-07
Minimum Orbit Intersection Distances (in AU)
for orbit epoch: 2460200.5, reference: E2024-CG3
Mercury2.64108
Venus2.23511
Earth1.96762
Mars1.42573
Jupiter1.9968
Saturn6.09866
Uranus15.295
Neptune26.8696

Observations

349 total observations over interval: 2001 09 18.394060 – 2024 01 05.266271
These data are available for download (format description).

Date (UT) J2000 RA J2000 Dec Magn Location Ref
2001 09 18.394060 01 49 11.448 +00 39 12.93 20.50 V 645 – Apache Point-Sloan Digital Sky Survey MPS 155781
2001 09 18.397532 01 49 11.330 +00 39 12.37 21.33   645 – Apache Point-Sloan Digital Sky Survey MPS 155781
2001 10 14.37966 01 30 31.541 -00 28 42.72 20.00 V 645 – Apache Point-Sloan Digital Sky Survey MPS 121150
2001 10 14.379660 01 30 31.540 -00 28 42.72 20.00 V 645 – Apache Point-Sloan Digital Sky Survey MPS 121150
2001 10 14.383132 01 30 31.363 -00 28 43.12 20.79   645 – Apache Point-Sloan Digital Sky Survey MPS 121150
2001 10 15.373510 01 29 41.878 -00 30 48.55 19.99 V 645 – Apache Point-Sloan Digital Sky Survey MPS 121150
2001 10 15.376982 01 29 41.700 -00 30 48.95 20.76   645 – Apache Point-Sloan Digital Sky Survey MPS 121150
2001 10 16.34767 01 28 53.22 -00 32 46.9 20.1   644 – Palomar Mountain/NEAT MPS 155781
2001 10 16.36896 01 28 52.11 -00 32 49.3 20.6   644 – Palomar Mountain/NEAT MPS 155781
2001 10 16.39214 01 28 50.92 -00 32 53.1 20.7   644 – Palomar Mountain/NEAT MPS 155781
2001 10 24.32908 01 22 18.28 -00 45 46.0 20.7   644 – Palomar Mountain/NEAT MPS 155781
2001 10 24.35020 01 22 17.22 -00 45 47.8 20.7   644 – Palomar Mountain/NEAT MPS 155781
2001 10 24.37123 01 22 16.20 -00 45 48.9 20.8   644 – Palomar Mountain/NEAT MPS 155782
2001 11 18.243220 01 06 09.624 -00 36 56.12 20.72 V 645 – Apache Point-Sloan Digital Sky Survey MPS 155782
2001 11 18.246692 01 06 09.526 -00 36 55.68 21.66   645 – Apache Point-Sloan Digital Sky Survey MPS 155782
2001 11 21.213490 01 04 58.485 -00 30 15.23 20.81 V 645 – Apache Point-Sloan Digital Sky Survey MPS 155782
2001 11 21.216962 01 04 58.404 -00 30 14.66 21.53   645 – Apache Point-Sloan Digital Sky Survey MPS 155782
2007 09 15.41473 04 27 37.72 +20 16 57.7 20.5 V G96 – Mt. Lemmon Survey MPS 218489
2007 09 15.42038 04 27 37.87 +20 16 58.8 20.5 V G96 – Mt. Lemmon Survey MPS 218489
2007 09 15.42598 04 27 38.05 +20 16 59.9 20.4 V G96 – Mt. Lemmon Survey MPS 218489
2007 09 15.43157 04 27 38.16 +20 17 00.8 20.5 V G96 – Mt. Lemmon Survey MPS 218489
2007 10 09.44382 04 32 12.62 +21 24 37.8 19.9 V G96 – Mt. Lemmon Survey MPS 218489
2007 10 09.45069 04 32 12.58 +21 24 39.1 20.1 V G96 – Mt. Lemmon Survey MPS 218489
2007 10 09.45752 04 32 12.55 +21 24 40.1 19.7 V G96 – Mt. Lemmon Survey MPS 218489
2007 10 09.46432 04 32 12.51 +21 24 40.9 19.9 V G96 – Mt. Lemmon Survey MPS 218489
2007 10 16.39571 04 30 51.84 +21 41 32.1 19.9 V G96 – Mt. Lemmon Survey MPS 220256
2007 10 16.40119 04 30 51.73 +21 41 33.0 20.3 V G96 – Mt. Lemmon Survey MPS 220256
2007 10 16.40669 04 30 51.66 +21 41 33.7 20.0 V G96 – Mt. Lemmon Survey MPS 220256
2007 10 16.41216 04 30 51.51 +21 41 34.5 19.9 V G96 – Mt. Lemmon Survey MPS 220256
2007 10 30.40937 04 24 25.52 +22 11 06.4 20.5 V 691 – Steward Observatory, Kitt Peak-Spacewatch MPS 223336
2007 10 30.42701 04 24 24.82 +22 11 08.5 20.2 V 691 – Steward Observatory, Kitt Peak-Spacewatch MPS 223336
2007 10 30.44465 04 24 24.11 +22 11 09.8 20.1 V 691 – Steward Observatory, Kitt Peak-Spacewatch MPS 223336
2007 11 03.35667 04 21 47.09 +22 18 06.3 20.2 V 691 – Steward Observatory, Kitt Peak-Spacewatch MPS 224647
2007 11 03.37434 04 21 46.33 +22 18 08.0 20.2 V 691 – Steward Observatory, Kitt Peak-Spacewatch MPS 224647
2007 11 03.39203 04 21 45.54 +22 18 09.9 20.2 V 691 – Steward Observatory, Kitt Peak-Spacewatch MPS 224647
2007 11 07.27317 04 18 51.32 +22 24 22.0 20.1 V 691 – Steward Observatory, Kitt Peak-Spacewatch MPS 224647
2007 11 07.29088 04 18 50.46 +22 24 23.7 20.0 V 691 – Steward Observatory, Kitt Peak-Spacewatch MPS 224647
2007 11 07.30860 04 18 49.60 +22 24 25.3 20.0 V 691 – Steward Observatory, Kitt Peak-Spacewatch MPS 224647
2007 11 14.26626 04 12 59.06 +22 33 47.4 19.9 V 691 – Steward Observatory, Kitt Peak-Spacewatch MPS 226723
2007 11 14.28390 04 12 58.12 +22 33 48.4 20.1 V 691 – Steward Observatory, Kitt Peak-Spacewatch MPS 226723
2007 11 14.30156 04 12 57.15 +22 33 49.6 20.0 V 691 – Steward Observatory, Kitt Peak-Spacewatch MPS 226723
2007 11 18.24033 04 09 22.87 +22 38 06.1   691 – Steward Observatory, Kitt Peak-Spacewatch MPS 228199
2007 11 18.25549 04 09 21.99 +22 38 07.3   691 – Steward Observatory, Kitt Peak-Spacewatch MPS 228199
2007 11 18.27087 04 09 21.15 +22 38 07.8   691 – Steward Observatory, Kitt Peak-Spacewatch MPS 228199
2007 12 19.20389 03 42 12.34 +22 53 42.3 19.9 V G96 – Mt. Lemmon Survey MPS 231721
2007 12 19.21463 03 42 11.88 +22 53 42.7 19.9 V G96 – Mt. Lemmon Survey MPS 231721
2007 12 19.22534 03 42 11.44 +22 53 42.9 19.9 V G96 – Mt. Lemmon Survey MPS 231721
2007 12 19.23597 03 42 10.98 +22 53 43.0 19.9 V G96 – Mt. Lemmon Survey MPS 231721
2010 04 09.35879 15 09 29.47 -13 26 45.9 20.4 V 691 – Steward Observatory, Kitt Peak-Spacewatch MPS 320586
2010 04 09.37647 15 09 28.85 -13 26 45.6 20.4 V 691 – Steward Observatory, Kitt Peak-Spacewatch MPS 320586
2010 04 09.39417 15 09 28.21 -13 26 45.2 20.4 V 691 – Steward Observatory, Kitt Peak-Spacewatch MPS 320586
2010 05 20.23429 14 37 47.96 -12 47 30.9 20.3 V G96 – Mt. Lemmon Survey MPS 327307
2010 05 20.24021 14 37 47.67 -12 47 30.8 20.2 V G96 – Mt. Lemmon Survey MPS 327307
2010 05 20.24617 14 37 47.42 -12 47 30.2 20.0 V G96 – Mt. Lemmon Survey MPS 327307
2010 05 20.25214 14 37 47.13 -12 47 30.2 20.0 V G96 – Mt. Lemmon Survey MPS 327307
2010 06 13.25051 14 23 58.41 -12 51 49.9 21.2 V G96 – Mt. Lemmon Survey MPS 331887
2010 06 13.25652 14 23 58.23 -12 51 50.5 20.8 V G96 – Mt. Lemmon Survey MPS 331887
2010 06 13.26254 14 23 58.12 -12 51 51.0 20.5 V G96 – Mt. Lemmon Survey MPS 331887
2010 06 13.26861 14 23 57.91 -12 51 51.9 21.2 V G96 – Mt. Lemmon Survey MPS 331887
2012 09 11.30813 01 44 18.35 -00 15 57.2 21.0 G G45 – Space Surveillance Telescope, Atom Site MPS 1609718
2012 09 11.33356 01 44 17.63 -00 16 00.2 20.5 G G45 – Space Surveillance Telescope, Atom Site MPS 1609718
2012 09 11.41461 01 44 15.43 -00 16 12.4 20.5 G G45 – Space Surveillance Telescope, Atom Site MPS 1609718
2012 09 11.44476 01 44 14.73 -00 16 17.8 20.0 G G45 – Space Surveillance Telescope, Atom Site MPS 1609718
2012 10 07.496159 01 27 15.139 -01 29 00.78 19.7 r F51 – Pan-STARRS 1, Haleakala MPS 434085
2012 10 07.507758 01 27 14.557 -01 29 02.56 19.7 r F51 – Pan-STARRS 1, Haleakala MPS 434085
2012 10 07.521802 01 27 13.848 -01 29 04.78 19.4 i F51 – Pan-STARRS 1, Haleakala MPS 434085
2012 10 15.347676 01 20 46.226 -01 46 52.96 19.8 w F51 – Pan-STARRS 1, Haleakala MPS 434965
2012 10 15.365787 01 20 45.288 -01 46 55.02 19.8 w F51 – Pan-STARRS 1, Haleakala MPS 434965
2012 10 15.380368 01 20 44.543 -01 46 56.79 19.7 w F51 – Pan-STARRS 1, Haleakala MPS 434965
2012 10 15.395009 01 20 43.786 -01 46 58.51 19.8 w F51 – Pan-STARRS 1, Haleakala MPS 434965
2012 11 05.292961 01 04 50.544 -02 02 48.96 20.2 w F51 – Pan-STARRS 1, Haleakala MPS 441578
2012 11 05.308056 01 04 49.948 -02 02 48.42 20.2 w F51 – Pan-STARRS 1, Haleakala MPS 441578
2012 11 05.323133 01 04 49.352 -02 02 47.86 20.2 w F51 – Pan-STARRS 1, Haleakala MPS 441578
2012 11 05.338266 01 04 48.749 -02 02 47.37 20.2 w F51 – Pan-STARRS 1, Haleakala MPS 441578
2013 09 14.60482 06 56 54.162 +27 35 36.66 21.5 w F51 – Pan-STARRS 1, Haleakala MPS 477650
2013 09 14.61041 06 56 54.598 +27 35 37.31 21.4 w F51 – Pan-STARRS 1, Haleakala MPS 477650
2013 09 14.61604 06 56 54.997 +27 35 37.69 21.5 w F51 – Pan-STARRS 1, Haleakala MPS 477650
2013 09 14.62165 06 56 55.443 +27 35 38.46 21.6 w F51 – Pan-STARRS 1, Haleakala MPS 477650
2013 12 28.19184 07 26 57.98 +33 53 06.9 19.9 R H15 – ISON-NM Observatory, Mayhill MPS 495175
2013 12 28.20205 07 26 57.36 +33 53 11.4 19.6 R H15 – ISON-NM Observatory, Mayhill MPS 495175
2013 12 28.21223 07 26 56.91 +33 53 14.4 19.7 R H15 – ISON-NM Observatory, Mayhill MPS 495175
2013 12 28.22247 07 26 56.21 +33 53 19.8 19.9 R H15 – ISON-NM Observatory, Mayhill MPS 495175
2013 12 31.37655 07 23 59.54 +34 07 53.1 20.2 V G96 – Mt. Lemmon Survey MPS 495175
2013 12 31.38399 07 23 59.12 +34 07 55.0 20.2 V G96 – Mt. Lemmon Survey MPS 495175
2013 12 31.39143 07 23 58.68 +34 07 57.0 20.2 V G96 – Mt. Lemmon Survey MPS 495175
2013 12 31.39884 07 23 58.24 +34 07 59.0 20.2 V G96 – Mt. Lemmon Survey MPS 495175
